Location: Luzzara
(44.9667°N, 10.6833°E)
Time: 02:13:19
(UTC+00:00)

Daily predictions for brighter satellites

Satellite Brightness Start Highest point End
(mag) Time Altitude Azimuth Time Altitude Azimuth Time Altitude Azimuth
ADEOS II 4.4 00:02:14 10° ENE 00:04:57 14° E 00:07:39 10° ESE
Cosmos 1867 4.0 00:05:01 35° WSW 00:07:04 55° NW 00:12:28 10° NNE
Cosmos 1674 Rocket 3.8 00:06:55 54° W 00:07:09 54° WNW 00:11:25 10° N
Cosmos 2221 Rocket 4.4 00:06:47 37° W 00:07:11 38° WNW 00:11:19 10° N
NOSS 2-2 (D) 4.3 00:02:14 10° NW 00:07:24 90° WNW 00:11:38 25° SE
Cosmos 1461 3.9 00:03:40 10° NW 00:06:31 34° W 00:06:31 34° W
Cosmos 2298 Rocket 3.9 00:07:41 57° SSW 00:08:49 85° WNW 00:14:10 10° NNE
Cosmos 1674 4.1 00:10:51 27° WNW 00:10:51 27° WNW 00:13:57 10° NNW
USA 306 2.7 00:11:52 76° ESE 00:11:52 76° ESE 00:15:53 10° ENE
Cosmos 1238 Rocket 4.4 00:10:52 10° NNW 00:12:06 19° NW 00:12:06 19° NW
Thor Agena Rocket 3.9 00:08:56 10° NNE 00:14:10 58° ESE 00:15:34 44° SSE
USA 307 2.8 00:15:20 70° ESE 00:15:20 70° ESE 00:19:20 10° ENE
ATLAS CENTAUR R/B 3.7 00:12:08 10° WNW 00:13:59 16° W 00:13:59 16° W
SL-16 R/B 3.5 00:16:08 23° SE 00:17:58 28° ESE 00:22:41 10° NE
ERBS 3.6 00:22:52 32° ENE 00:22:52 32° ENE 00:24:42 10° NE
Cosmos 1980 3.6 00:20:38 49° SSW 00:22:14 89° WNW 00:27:56 10° NNE
Cosmos 1378 Rocket 4.3 00:22:19 38° W 00:22:47 40° WNW 00:26:59 10° N
Cosmos 2333 Rocket 4.0 00:19:42 13° W 00:23:26 24° NW 00:27:57 10° N
ATLAS 5 CENTAUR R/B 2.7 00:13:37 10° NW 00:23:58 55° WSW 00:24:39 50° SSW
CZ-4C R/B 3.3 00:17:36 10° NW 00:24:46 50° WSW 00:27:53 35° SSW
Cosmos 1455 Rocket 3.6 00:20:26 10° N 00:24:49 53° ENE 00:26:10 38° SE
USA 215 4.5 00:20:01 10° NE 00:25:59 39° NNW 00:31:57 10° W
Cosmos 332 Rocket 3.8 00:28:23 55° S 00:29:19 72° ESE 00:34:07 10° NNE
NOSS 0 Rocket 4.1 00:29:22 36° SW 00:31:55 65° WNW 00:38:09 10° NNE
USA 32 4.1 00:35:14 47° SW 00:36:38 68° W 00:41:54 10° N
Meteor 1-24 Rocket 4.2 00:34:53 31° SSE 00:37:16 51° E 00:42:33 10° NNE
Meteor 2-10 Rocket 3.6 00:33:37 10° NNW 00:39:19 81° W 00:41:17 42° S
Cosmos 1975 Rocket 3.0 00:39:39 55° S 00:40:34 79° E 00:45:02 10° N
Cosmos 839 Rocket 4.3 00:38:41 10° NW 00:45:00 61° WSW 00:49:12 27° S
USA 308 2.9 00:44:46 49° W 00:45:46 72° NNW 00:49:57 10° NE
Cosmos 2219 Rocket 4.1 00:42:56 11° W 00:46:47 20° NW 00:50:55 10° N
MOS 1 Rocket 4.5 00:44:06 15° SE 00:47:05 35° ENE 00:51:00 10° N
Cosmos 1025 Rocket 3.0 00:47:03 52° SSE 00:48:03 76° E 00:52:22 10° NNE
Cosmos 1455 3.5 00:47:28 10° N 00:50:54 34° ENE 00:52:38 22° SE
Cosmos 1269 Rocket 4.1 00:46:28 10° NNW 00:51:47 76° ENE 00:55:07 23° SSE
GP-B 3.5 00:52:59 10° N 00:57:15 47° W 00:58:07 41° WSW
Meteor 2-5 Rocket 3.7 00:55:37 36° S 00:58:08 88° E 01:03:51 10° N
Lacrosse 5 2.0 00:58:31 42° SSW 01:00:03 62° SE 01:05:06 10° NE
CZ-2D R/B 2.1 00:54:44 10° NNE 01:00:08 76° ESE 01:02:28 35° S
Cosmos 1300 3.8 00:58:20 10° NNW 01:01:27 29° W 01:01:27 29° W
USA 267 4.2 01:02:14 26° WSW 01:02:14 26° WSW 01:07:17 10° WNW
USA 305 3.7 01:07:08 23° W 01:09:21 45° NNW 01:13:23 10° NE
Cosmos 1544 Rocket 3.5 01:06:46 10° N 01:11:12 86° E 01:13:10 33° S
USA 229 DEB 4.5 01:05:11 10° NW 01:11:55 38° WSW 01:15:06 27° SSW
USA 229 4.5 01:05:16 10° NW 01:12:02 38° WSW 01:15:15 27° SSW
Cosmos 2237 Rocket 3.1 01:11:28 24° WSW 01:14:23 40° NW 01:19:45 10° NNE
SL-16 R/B 2.5 01:14:42 20° SSE 01:19:12 81° WSW 01:25:29 10° NNW
AQUA 3.9 01:14:40 10° NNE 01:19:28 74° ESE 01:21:49 30° S
Helios 1A 3.7 01:16:52 14° SE 01:20:22 52° ENE 01:24:30 10° N
Lacrosse 5 rocket 1.4 01:21:54 42° S 01:22:53 57° SE 01:26:52 10° NE
SAR-Lupe-2 3.6 01:19:26 10° NNE 01:23:02 77° ESE 01:24:09 41° S
SME Rocket 3.9 01:24:35 30° WSW 01:25:14 32° W 01:29:32 10° NNW
Resurs 1-4 Rocket 2.3 01:24:05 10° N 01:29:16 59° WNW 01:31:56 28° SW
Cosmos 2074 Rocket 4.0 01:23:11 10° NNW 01:29:29 75° W 01:33:59 20° S
Cosmos 1943 Rocket 2.2 01:28:47 10° NNW 01:34:25 66° WSW 01:39:28 13° SSE
Cosmos 2297 3.7 01:28:38 10° NNW 01:34:25 84° WSW 01:40:09 10° SSE
Cosmos 1703 3.8 01:35:52 22° SSE 01:38:14 54° E 01:42:05 10° NNE
CRYOSAT 2 4.3 01:38:47 24° S 01:41:43 69° W 01:46:37 10° N
Cosmos 2184 Rocket 4.1 01:38:10 10° NNW 01:44:19 59° W 01:48:45 19° SSW
Cosmos 2278 Rocket 3.9 01:41:48 10° WNW 01:44:54 15° W 01:45:23 15° WSW
ADEOS II 2.1 01:39:58 10° NNE 01:45:15 80° WNW 01:48:40 22° SSW
IDEFIX/ARIANE 42P 2.6 01:40:52 10° NNE 01:46:11 88° ESE 01:49:52 20° SSW
Cosmos 1610 Rocket 4.4 01:42:00 10° N 01:48:11 84° W 01:54:09 11° S
Cosmos 292 Rocket 3.7 01:48:10 23° SSW 01:51:10 86° ESE 01:55:59 10° NNE
Cosmos 2084 Rocket 4.4 01:49:15 18° W 01:51:25 32° NW 01:54:52 10° NNE
USA 306 4.4 01:47:51 10° W 01:51:36 31° NNW 01:55:22 10° NE
USA 307 4.4 01:51:16 10° W 01:55:03 32° NNW 01:58:52 10° NE
NPP 4.3 01:52:07 10° N 01:57:11 43° WNW 02:00:35 19° SW
ERBS 4.4 01:55:02 10° WNW 01:57:17 19° NNW 01:59:33 10° NNE
Cosmos 2369 Rocket 2.3 01:54:06 10° NNW 01:59:44 79° ENE 02:05:19 10° SSE
SL-16 R/B 2.7 01:58:00 19° SW 02:01:47 48° WNW 02:07:17 10° NNE
IRS-1D 3.7 01:57:48 10° NNE 02:03:11 76° ESE 02:07:54 13° S
Cosmos 2228 3.0 01:58:48 10° N 02:03:11 85° W 02:07:31 10° S
Cosmos 614 Rocket 4.0 01:58:09 10° NNW 02:03:16 59° WSW 02:08:22 10° S
EO 1 Del DPAF 3.3 01:59:57 10° N 02:03:23 54° WNW 02:05:17 24° SW
Cosmos 2251 Rocket 3.5 02:00:01 10° NNW 02:05:19 89° ENE 02:10:37 10° SSE
Meteor 1-28 Rocket 3.7 02:03:37 22° SSW 02:05:33 40° W 02:09:07 10° NNW
Cosmos 1656 Rocket 3.8 02:03:41 10° NNW 02:09:07 75° ENE 02:14:32 10° SSE
COSMOS 2455 2.9 02:04:48 19° SW 02:09:19 77° WNW 02:15:23 10° NNE
Cosmos 1536 Rocket 4.2 02:08:03 20° SW 02:10:40 41° WNW 02:14:51 10° N
COSMOS 2441 4.4 02:13:36 10° N 02:18:29 76° WNW 02:22:48 13° SSW
Cosmos 1408 4.4 02:16:35 10° SSE 02:19:46 29° E 02:22:57 10° NNE
Nadezhda 1 Rocket 4.4 02:15:05 16° SSW 02:20:06 49° WNW 02:26:12 10° N
MSX 4.0 02:17:29 10° N 02:23:11 63° WNW 02:28:25 12° SSW
Cosmos 1603 4.0 02:19:47 11° SSW 02:25:12 68° ESE 02:30:51 10° NNE
MOS 1 Rocket 4.4 02:23:22 16° SW 02:25:26 22° W 02:28:48 10° NW
Cosmos 1455 3.9 02:23:46 10° NW 02:26:04 16° W 02:27:23 14° WSW
Cosmos 1271 Rocket 3.8 02:26:50 10° NW 02:30:06 27° W 02:32:44 14° SW
Cosmos 1606 Rocket 3.6 02:29:59 10° NNW 02:34:21 59° W 02:38:38 10° S
ALOS 3.0 02:33:00 10° NNE 02:37:35 52° E 02:42:07 10° S
CZ-2D R/B 4.0 02:36:06 10° NNW 02:39:31 17° WNW 02:42:54 10° W
CZ-2C R/B 3.2 02:34:43 10° NNE 02:39:46 55° E 02:44:38 10° S
Lacrosse 5 3.1 02:38:36 10° W 02:43:18 36° NNW 02:48:01 10° NE
Helios 1B rocket 2.4 02:40:19 10° N 02:44:23 79° WNW 02:48:26 10° SSW
Cosmos 2366 rocket 4.0 02:40:29 10° N 02:46:39 82° W 02:52:50 10° S
Cosmos 2341 Rocket 4.2 02:40:53 10° NNW 02:47:08 58° W 02:53:22 10° S
BREEZE-M DEB (TANK) 2.3 02:47:22 10° WSW 02:51:54 69° SSE 02:54:09 10° ENE
Cosmos 407 Rocket 3.6 02:47:57 10° NNW 02:53:14 63° WSW 02:58:24 10° S
Meteor 1-11 4.4 02:47:33 10° S 02:53:22 86° E 02:59:11 10° NNE
SL-8 Rocket 4.1 02:47:39 10° NNW 02:53:54 62° W 03:00:05 10° S
Okean 1-7 Rocket 4.3 02:50:42 10° S 02:55:01 56° E 02:59:20 10° NNE
Cosmos 1371 Rocket 4.1 02:50:09 10° SSW 02:55:18 82° ESE 03:00:31 10° NNE
Cosmos 1328 4.4 02:52:36 10° SSW 02:56:20 40° WNW 03:00:07 10° N
Cosmos 1943 3.4 02:51:04 10° SW 02:56:43 64° WNW 03:02:23 10° NNE
Genesis I 3.2 02:56:55 10° NW 03:00:56 66° WSW 03:04:52 10° SSE
Lacrosse 5 rocket 2.8 02:58:43 10° W 03:02:11 28° NNW 03:05:51 10° NE
Meteor 1-29 3.3 03:00:14 10° NNE 03:03:27 61° E 03:06:41 10° S
SL-16 R/B 4.3 03:01:03 10° WSW 03:03:45 13° W 03:06:27 10° WNW
Cosmos 1140 Rocket 3.8 02:59:05 10° NNW 03:04:07 48° WSW 03:09:06 10° S
